| time (UTC) | temp F | wind direction | speed MPH | gust MPH | rain 1hr in | rain 24hr in | rain mn in | humidity % | barometer mb |
| 20260503184258 | 57 | 303 | 5.0 | 11.0 | 0.00 | 0.00 | 0.00 | 38 | 1018.9 |
| 20260503183754 | 56 | 274 | 6.0 | 8.0 | 0.00 | 0.00 | 0.00 | 36 | 1018.7 |
| 20260503183252 | 56 | 333 | 2.0 | 9.0 | 0.00 | 0.00 | 0.00 | 36 | 1018.6 |
| 20260503182749 | 56 | 313 | 3.0 | 15.0 | 0.00 | 0.00 | 0.00 | 36 | 1019.0 |
| 20260503182248 | 57 | 221 | 5.0 | 7.0 | 0.00 | 0.00 | 0.00 | 38 | 1018.8 |
| 20260503181745 | 56 | 289 | 4.0 | 13.0 | 0.00 | 0.00 | 0.00 | 37 | 1019.0 |
| 20260503181242 | 56 | 340 | 3.0 | 9.0 | 0.00 | 0.00 | 0.00 | 38 | 1019.1 |
| 20260503180738 | 55 | 93 | 3.0 | 4.0 | 0.00 | 0.00 | 0.00 | 38 | 1019.0 |
| 20260503180236 | 56 | 82 | 1.0 | 4.0 | 0.00 | 0.00 | 0.00 | 36 | 1019.1 |
| 20260503175732 | 55 | 98 | 2.0 | 9.0 | 0.00 | 0.00 | 0.00 | 40 | 1019.2 |
| 20260503175230 | 55 | 307 | 1.0 | 4.0 | 0.00 | 0.00 | 0.00 | 42 | 1019.2 |
| 20260503174726 | 55 | 279 | 5.0 | 9.0 | 0.00 | 0.00 | 0.00 | 39 | 1019.2 |
| 20260503174224 | 55 | 286 | 4.0 | 11.0 | 0.00 | 0.00 | 0.00 | 40 | 1019.3 |
| 20260503173719 | 56 | 287 | 8.0 | 10.0 | 0.00 | 0.00 | 0.00 | 40 | 1019.4 |
| 20260503173215 | 56 | 287 | 3.0 | 6.0 | 0.00 | 0.00 | 0.00 | 39 | 1019.6 |
| 20260503172712 | 54 | 27 | 3.0 | 3.0 | 0.00 | 0.00 | 0.00 | 36 | 1019.6 |
| 20260503172209 | 55 | 55 | 5.0 | 9.0 | 0.00 | 0.00 | 0.00 | 42 | 1019.8 |
| 20260503171705 | 54 | 307 | 5.0 | 10.0 | 0.00 | 0.00 | 0.00 | 42 | 1019.8 |
| 20260503171203 | 54 | 309 | 4.0 | 11.0 | 0.00 | 0.00 | 0.00 | 43 | 1019.7 |
| 20260503170700 | 54 | 264 | 6.0 | 10.0 | 0.00 | 0.00 | 0.00 | 36 | 1019.7 |
| 20260503170157 | 54 | 297 | 8.0 | 11.0 | 0.00 | 0.00 | 0.00 | 36 | 1020.1 |
| 20260503160124 | 52 | 282 | 4.0 | 4.0 | 0.00 | 0.00 | 0.00 | 43 | 1020.6 |
| 20260503150553 | 49 | 77 | 1.0 | 10.0 | 0.00 | 0.00 | 0.00 | 47 | 1020.3 |
| 20260503130943 | 42 | 237 | 6.0 | 8.0 | 0.00 | 0.00 | 0.00 | 64 | 1020.6 |
| 20260503130441 | 42 | 2 | 3.0 | 7.0 | 0.00 | 0.00 | 0.00 | 65 | 1020.8 |
| 20260503110332 | 35 | 230 | 0.0 | 0.0 | 0.00 | 0.00 | 0.00 | 83 | 1020.2 |
| 20260503100258 | 35 | 286 | 0.0 | 0.0 | 0.00 | 0.00 | 0.00 | 82 | 1019.8 |
| 20260503090218 | 34 | 232 | 0.0 | 0.0 | 0.00 | 0.00 | 0.00 | 87 | 1019.7 |
| 20260503081150 | 35 | 250 | 0.0 | 0.0 | 0.00 | 0.00 | 0.00 | 82 | 1019.3 |
| 20260503080646 | 35 | 243 | 1.0 | 2.0 | 0.00 | 0.00 | 0.00 | 84 | 1019.4 |
| 20260503080144 | 34 | 218 | 0.0 | 0.0 | 0.00 | 0.00 | 0.00 | 85 | 1019.4 |
| 20260503072621 | 35 | 244 | 0.0 | 0.0 | 0.00 | 0.00 | 0.00 | 83 | 1019.1 |
| 20260503072118 | 35 | 253 | 0.0 | 1.0 | 0.00 | 0.00 | 0.00 | 82 | 1018.9 |
| 20260503071614 | 36 | 274 | 0.0 | 0.0 | 0.00 | 0.00 | 0.00 | 81 | 1019.0 |
| 20260503071111 | 35 | 249 | 1.0 | 2.0 | 0.00 | 0.00 | 0.00 | 82 | 1018.9 |
| 20260503070608 | 35 | 254 | 0.0 | 0.0 | 0.00 | 0.00 | 0.00 | 80 | 1019.0 |
| 20260503070106 | 36 | 306 | 0.0 | 2.0 | 0.00 | 0.00 | 0.00 | 80 | 1019.0 |
| 20260503055031 | 39 | 273 | 2.0 | 3.0 | 0.00 | 0.00 | 0.00 | 75 | 1019.0 |
| 20260503054527 | 39 | 316 | 2.0 | 2.0 | 0.00 | 0.00 | 0.00 | 75 | 1019.0 |
| 20260503054025 | 39 | 297 | 2.0 | 4.0 | 0.00 | 0.00 | 0.00 | 74 | 1019.0 |
| 20260503053523 | 39 | 276 | 3.0 | 6.0 | 0.00 | 0.00 | 0.00 | 74 | 1018.9 |
| 20260503053020 | 39 | 272 | 2.0 | 2.0 | 0.00 | 0.00 | 0.00 | 74 | 1018.9 |
| 20260503052517 | 39 | 302 | 1.0 | 2.0 | 0.00 | 0.00 | 0.00 | 75 | 1018.9 |
| 20260503052013 | 39 | 282 | 1.0 | 2.0 | 0.00 | 0.00 | 0.00 | 74 | 1018.9 |
| 20260503051509 | 39 | 352 | 0.0 | 4.0 | 0.00 | 0.00 | 0.00 | 75 | 1018.7 |
| 20260503051007 | 39 | 279 | 2.0 | 4.0 | 0.00 | 0.00 | 0.00 | 75 | 1018.8 |
| 20260503050502 | 39 | 304 | 1.0 | 1.0 | 0.00 | 0.00 | 0.00 | 75 | 1018.9 |
| 20260503050000 | 39 | 275 | 1.0 | 2.0 | 0.00 | 0.00 | 0.00 | 75 | 1019.0 |
| 20260503045457 | 39 | 282 | 2.0 | 3.0 | 0.00 | 0.00 | 0.00 | 74 | 1019.0 |
| 20260503044954 | 39 | 299 | 0.0 | 2.0 | 0.00 | 0.00 | 0.00 | 74 | 1019.0 |
| 20260503044450 | 39 | 289 | 0.0 | 2.0 | 0.00 | 0.00 | 0.00 | 74 | 1019.1 |
| 20260503043948 | 39 | 273 | 2.0 | 3.0 | 0.00 | 0.00 | 0.00 | 73 | 1019.0 |
| 20260503043444 | 39 | 272 | 2.0 | 3.0 | 0.00 | 0.00 | 0.00 | 74 | 1019.0 |
| 20260503042941 | 39 | 311 | 2.0 | 2.0 | 0.00 | 0.00 | 0.00 | 74 | 1019.1 |
| 20260503042437 | 39 | 332 | 2.0 | 3.0 | 0.00 | 0.00 | 0.00 | 74 | 1019.0 |
| 20260503041934 | 39 | 335 | 1.0 | 3.0 | 0.00 | 0.00 | 0.00 | 74 | 1018.9 |
| 20260503041431 | 39 | 305 | 0.0 | 4.0 | 0.00 | 0.00 | 0.00 | 74 | 1018.9 |
| 20260503040928 | 39 | 306 | 0.0 | 0.0 | 0.00 | 0.00 | 0.00 | 74 | 1019.1 |
| 20260503040426 | 40 | 328 | 0.0 | 1.0 | 0.00 | 0.00 | 0.00 | 73 | 1019.0 |
| 20260503035923 | 40 | 285 | 1.0 | 3.0 | 0.00 | 0.00 | 0.00 | 73 | 1019.2 |
| 20260503035420 | 40 | 274 | 2.0 | 2.0 | 0.00 | 0.00 | 0.00 | 72 | 1019.1 |
| 20260503034917 | 40 | 292 | 0.0 | 2.0 | 0.00 | 0.00 | 0.00 | 72 | 1018.9 |
| 20260503034415 | 40 | 309 | 0.0 | 1.0 | 0.00 | 0.00 | 0.00 | 72 | 1018.9 |
| 20260503033911 | 40 | 326 | 0.0 | 1.0 | 0.00 | 0.00 | 0.00 | 71 | 1019.0 |
| 20260503033409 | 40 | 309 | 2.0 | 2.0 | 0.00 | 0.00 | 0.00 | 71 | 1018.9 |
| 20260503032907 | 40 | 313 | 3.0 | 4.0 | 0.00 | 0.00 | 0.00 | 71 | 1019.1 |
| 20260503032405 | 40 | 246 | 2.0 | 4.0 | 0.00 | 0.00 | 0.00 | 71 | 1019.0 |
| 20260503031903 | 40 | 318 | 2.0 | 3.0 | 0.00 | 0.00 | 0.00 | 71 | 1019.2 |
| 20260503031400 | 40 | 314 | 1.0 | 4.0 | 0.00 | 0.00 | 0.00 | 70 | 1019.0 |
| 20260503030856 | 40 | 280 | 0.0 | 0.0 | 0.00 | 0.00 | 0.00 | 70 | 1018.9 |
| 20260503030353 | 40 | 310 | 0.0 | 1.0 | 0.00 | 0.00 | 0.00 | 70 | 1019.0 |
| 20260503025849 | 40 | 308 | 2.0 | 2.0 | 0.00 | 0.00 | 0.00 | 70 | 1019.1 |
| 20260503025347 | 40 | 258 | 2.0 | 2.0 | 0.00 | 0.00 | 0.00 | 70 | 1019.1 |
| 20260503024844 | 40 | 263 | 2.0 | 2.0 | 0.00 | 0.00 | 0.00 | 72 | 1019.2 |
| 20260503024341 | 40 | 54 | 0.0 | 0.0 | 0.00 | 0.00 | 0.00 | 70 | 1019.2 |
| 20260503023837 | 40 | 51 | 0.0 | 0.0 | 0.00 | 0.00 | 0.00 | 69 | 1019.2 |
| 20260503023335 | 40 | 32 | 0.0 | 0.0 | 0.00 | 0.00 | 0.00 | 68 | 1019.2 |
| 20260503022832 | 40 | 29 | 1.0 | 1.0 | 0.00 | 0.00 | 0.00 | 68 | 1019.1 |
| 20260503022331 | 40 | 285 | 1.0 | 3.0 | 0.00 | 0.00 | 0.00 | 68 | 1018.9 |
| 20260503021828 | 40 | 93 | 0.0 | 1.0 | 0.00 | 0.00 | 0.00 | 68 | 1019.1 |
| 20260503021324 | 40 | 289 | 3.0 | 4.0 | 0.00 | 0.00 | 0.00 | 69 | 1019.2 |
| 20260503020822 | 40 | 243 | 0.0 | 1.0 | 0.00 | 0.00 | 0.00 | 68 | 1019.2 |
| 20260503020320 | 40 | 5 | 0.0 | 0.0 | 0.00 | 0.00 | 0.00 | 68 | 1019.2 |
| 20260503015816 | 41 | 263 | 0.0 | 1.0 | 0.00 | 0.00 | 0.00 | 67 | 1019.0 |
| 20260503015313 | 41 | 24 | 2.0 | 3.0 | 0.00 | 0.00 | 0.00 | 66 | 1019.0 |
| 20260503014809 | 41 | 42 | 0.0 | 1.0 | 0.00 | 0.00 | 0.00 | 67 | 1018.8 |
| 20260503014307 | 41 | 98 | 1.0 | 2.0 | 0.00 | 0.00 | 0.00 | 66 | 1019.0 |
| 20260503013804 | 41 | 359 | 1.0 | 2.0 | 0.00 | 0.00 | 0.00 | 66 | 1018.9 |
| 20260503013301 | 41 | 88 | 2.0 | 6.0 | 0.00 | 0.00 | 0.00 | 66 | 1019.1 |
| 20260503012758 | 41 | 355 | 4.0 | 6.0 | 0.00 | 0.00 | 0.00 | 65 | 1019.1 |
| 20260503012255 | 41 | 32 | 1.0 | 2.0 | 0.00 | 0.00 | 0.00 | 67 | 1019.0 |
| 20260503011752 | 42 | 275 | 2.0 | 2.0 | 0.00 | 0.00 | 0.00 | 67 | 1018.9 |
| 20260503011249 | 42 | 313 | 2.0 | 6.0 | 0.00 | 0.00 | 0.00 | 67 | 1018.8 |
| 20260503010745 | 42 | 291 | 1.0 | 2.0 | 0.00 | 0.00 | 0.00 | 67 | 1018.9 |
| 20260503010242 | 42 | 46 | 1.0 | 4.0 | 0.00 | 0.00 | 0.00 | 68 | 1018.9 |
| 20260503005740 | 42 | 306 | 1.0 | 2.0 | 0.00 | 0.00 | 0.00 | 67 | 1018.8 |
| 20260503005237 | 42 | 299 | 4.0 | 4.0 | 0.00 | 0.00 | 0.00 | 68 | 1018.8 |
| 20260503004733 | 42 | 349 | 0.0 | 3.0 | 0.00 | 0.00 | 0.00 | 67 | 1018.6 |
| 20260503004231 | 42 | 55 | 2.0 | 6.0 | 0.00 | 0.00 | 0.00 | 67 | 1018.7 |
| 20260503003728 | 42 | 30 | 2.0 | 6.0 | 0.00 | 0.00 | 0.00 | 66 | 1018.4 |
| 20260503003225 | 42 | 76 | 5.0 | 10.0 | 0.00 | 0.00 | 0.00 | 66 | 1018.4 |
| 20260503002722 | 42 | 69 | 4.0 | 6.0 | 0.00 | 0.00 | 0.00 | 67 | 1018.3 |
| 20260503002219 | 42 | 48 | 2.0 | 7.0 | 0.00 | 0.00 | 0.00 | 66 | 1018.4 |
| 20260503001715 | 43 | 62 | 2.0 | 4.0 | 0.00 | 0.00 | 0.00 | 66 | 1018.2 |
| 20260503001212 | 43 | 83 | 3.0 | 4.0 | 0.00 | 0.00 | 0.00 | 67 | 1018.2 |
| 20260503000710 | 43 | 316 | 0.0 | 3.0 | 0.00 | 0.00 | 0.00 | 66 | 1018.0 |
| 20260503000207 | 43 | 56 | 1.0 | 4.0 | 0.00 | 0.00 | 0.00 | 66 | 1018.1 |
| 20260502235703 | 43 | 40 | 2.0 | 3.0 | 0.00 | 0.00 | 0.00 | 67 | 1017.9 |
| 20260502235201 | 43 | 296 | 3.0 | 4.0 | 0.00 | 0.00 | 0.00 | 66 | 1018.0 |
| 20260502234657 | 43 | 46 | 3.0 | 7.0 | 0.00 | 0.00 | 0.00 | 65 | 1017.9 |
| 20260502234155 | 43 | 40 | 1.0 | 7.0 | 0.00 | 0.00 | 0.00 | 65 | 1018.0 |
| 20260502233650 | 43 | 68 | 6.0 | 7.0 | 0.00 | 0.00 | 0.00 | 65 | 1018.0 |
| 20260502233147 | 44 | 42 | 8.0 | 10.0 | 0.00 | 0.00 | 0.00 | 64 | 1017.8 |
| 20260502232643 | 44 | 40 | 4.0 | 7.0 | 0.00 | 0.00 | 0.00 | 64 | 1017.6 |
| 20260502232141 | 44 | 40 | 2.0 | 7.0 | 0.00 | 0.00 | 0.00 | 64 | 1017.6 |
| 20260502231637 | 44 | 22 | 4.0 | 6.0 | 0.00 | 0.00 | 0.00 | 64 | 1017.7 |
| 20260502231135 | 44 | 62 | 5.0 | 7.0 | 0.00 | 0.00 | 0.00 | 64 | 1017.6 |
| 20260502230633 | 45 | 23 | 2.0 | 4.0 | 0.00 | 0.00 | 0.00 | 63 | 1017.7 |
| 20260502230131 | 45 | 309 | 0.0 | 8.0 | 0.00 | 0.00 | 0.00 | 61 | 1017.6 |
| 20260502225626 | 45 | 72 | 5.0 | 7.0 | 0.00 | 0.00 | 0.00 | 61 | 1017.5 |
| 20260502225125 | 46 | 56 | 3.0 | 9.0 | 0.00 | 0.00 | 0.00 | 61 | 1017.3 |
| 20260502224620 | 46 | 33 | 3.0 | 7.0 | 0.00 | 0.00 | 0.00 | 62 | 1017.5 |
| 20260502224117 | 46 | 339 | 8.0 | 9.0 | 0.00 | 0.00 | 0.00 | 60 | 1017.3 |
| 20260502223615 | 46 | 346 | 4.0 | 8.0 | 0.00 | 0.00 | 0.00 | 60 | 1017.4 |
| 20260502223113 | 46 | 17 | 3.0 | 6.0 | 0.00 | 0.00 | 0.00 | 59 | 1017.2 |
| 20260502222610 | 47 | 47 | 5.0 | 9.0 | 0.00 | 0.00 | 0.00 | 58 | 1017.3 |
| 20260502222106 | 47 | 357 | 4.0 | 7.0 | 0.00 | 0.00 | 0.00 | 58 | 1017.2 |
| 20260502221602 | 48 | 49 | 2.0 | 15.0 | 0.00 | 0.00 | 0.00 | 58 | 1016.9 |
| 20260502221100 | 48 | 337 | 4.0 | 8.0 | 0.00 | 0.00 | 0.00 | 58 | 1016.9 |
| 20260502220555 | 48 | 51 | 3.0 | 4.0 | 0.00 | 0.00 | 0.00 | 56 | 1016.8 |
| 20260502220052 | 48 | 42 | 2.0 | 9.0 | 0.00 | 0.00 | 0.00 | 54 | 1016.8 |
| 20260502215549 | 48 | 59 | 5.0 | 11.0 | 0.00 | 0.00 | 0.00 | 56 | 1016.8 |
| 20260502215046 | 49 | 44 | 8.0 | 11.0 | 0.00 | 0.00 | 0.00 | 55 | 1016.6 |
| 20260502214543 | 49 | 318 | 7.0 | 9.0 | 0.00 | 0.00 | 0.00 | 50 | 1016.5 |
| 20260502214041 | 48 | 307 | 5.0 | 8.0 | 0.00 | 0.00 | 0.00 | 51 | 1016.5 |
| 20260502213537 | 49 | 290 | 2.0 | 10.0 | 0.00 | 0.00 | 0.00 | 49 | 1016.4 |
| 20260502213035 | 49 | 323 | 3.0 | 9.0 | 0.00 | 0.00 | 0.00 | 52 | 1016.3 |
| 20260502212534 | 49 | 323 | 3.0 | 4.0 | 0.00 | 0.00 | 0.00 | 53 | 1016.3 |
| 20260502212031 | 49 | 54 | 4.0 | 7.0 | 0.00 | 0.00 | 0.00 | 51 | 1016.6 |
| 20260502211526 | 49 | 311 | 4.0 | 6.0 | 0.00 | 0.00 | 0.00 | 51 | 1016.4 |
| 20260502211024 | 49 | 62 | 1.0 | 9.0 | 0.00 | 0.00 | 0.00 | 51 | 1016.4 |
| 20260502210521 | 49 | 320 | 4.0 | 7.0 | 0.00 | 0.00 | 0.00 | 51 | 1016.4 |
| 20260502210018 | 49 | 282 | 6.0 | 10.0 | 0.00 | 0.00 | 0.00 | 54 | 1016.1 |
| 20260502205514 | 51 | 316 | 9.0 | 13.0 | 0.00 | 0.00 | 0.00 | 50 | 1016.3 |
| 20260502205011 | 50 | 311 | 4.0 | 6.0 | 0.00 | 0.00 | 0.00 | 50 | 1016.1 |
| 20260502204508 | 49 | 301 | 6.0 | 9.0 | 0.00 | 0.00 | 0.00 | 49 | 1016.3 |
| 20260502204006 | 49 | 315 | 5.0 | 8.0 | 0.00 | 0.00 | 0.00 | 50 | 1016.3 |
| 20260502203503 | 49 | 327 | 2.0 | 6.0 | 0.00 | 0.00 | 0.00 | 48 | 1016.4 |
| 20260502203000 | 49 | 5 | 4.0 | 9.0 | 0.00 | 0.00 | 0.00 | 49 | 1016.3 |
| 20260502202456 | 49 | 328 | 3.0 | 7.0 | 0.00 | 0.00 | 0.00 | 49 | 1016.2 |
| 20260502201955 | 50 | 309 | 7.0 | 11.0 | 0.00 | 0.00 | 0.00 | 51 | 1016.3 |
| 20260502201450 | 49 | 111 | 2.0 | 8.0 | 0.00 | 0.00 | 0.00 | 49 | 1016.5 |
| 20260502200947 | 49 | 56 | 2.0 | 3.0 | 0.00 | 0.00 | 0.00 | 49 | 1016.2 |
| 20260502200443 | 49 | 40 | 5.0 | 6.0 | 0.00 | 0.00 | 0.00 | 52 | 1016.3 |
| 20260502195940 | 49 | 312 | 3.0 | 4.0 | 0.00 | 0.00 | 0.00 | 51 | 1016.3 |
| 20260502195437 | 50 | 310 | 6.0 | 9.0 | 0.00 | 0.00 | 0.00 | 48 | 1016.4 |
| 20260502194934 | 50 | 300 | 7.0 | 8.0 | 0.00 | 0.00 | 0.00 | 49 | 1016.2 |
| 20260502194431 | 50 | 358 | 4.0 | 4.0 | 0.00 | 0.00 | 0.00 | 49 | 1016.5 |
| 20260502193926 | 49 | 63 | 0.0 | 3.0 | 0.00 | 0.00 | 0.00 | 47 | 1016.4 |
| 20260502193424 | 49 | 315 | 5.0 | 10.0 | 0.00 | 0.00 | 0.00 | 48 | 1016.5 |
| 20260502192919 | 50 | 311 | 8.0 | 9.0 | 0.00 | 0.00 | 0.00 | 48 | 1016.6 |
| 20260502192416 | 50 | 302 | 8.0 | 10.0 | 0.00 | 0.00 | 0.00 | 48 | 1016.5 |
| 20260502191914 | 50 | 329 | 6.0 | 13.0 | 0.00 | 0.00 | 0.00 | 48 | 1016.6 |
| 20260502191411 | 50 | 306 | 6.0 | 8.0 | 0.00 | 0.00 | 0.00 | 48 | 1016.6 |
| 20260502190909 | 49 | 327 | 6.0 | 8.0 | 0.00 | 0.00 | 0.00 | 50 | 1016.6 |
| 20260502190406 | 49 | 56 | 5.0 | 9.0 | 0.00 | 0.00 | 0.00 | 47 | 1017.0 |
| 20260502185902 | 49 | 338 | 3.0 | 3.0 | 0.00 | 0.00 | 0.00 | 51 | 1017.0 |
| 20260502185357 | 49 | 324 | 7.0 | 15.0 | 0.00 | 0.00 | 0.00 | 50 | 1017.0 |
| 20260502184855 | 50 | 287 | 8.0 | 8.0 | 0.00 | 0.00 | 0.00 | 48 | 1017.0 |